紫金山第2彗星

60P/Tsuchinshan 2 (2012)

English version
Home page
Updated on February 10, 2013

---------------------------------------------------------------------

・ プロフィール

・ 写真集

・ 軌道要素

Epoch 2012 June 2.0 TT = JDT 2456080.5
T 2012 May 13.52839 TT                                  MPC
q   1.6181653            (2000.0)            P               Q
n   0.15015039     Peri.  216.38236     -0.55897799     -0.82679142
a   3.5057834      Node   267.68412     +0.77484693     -0.49382328
e   0.5384298      Incl.    3.61067     +0.29522169     -0.26935945
P   6.56
From 353 observations 1971 Sept. 19-2012 May 28, mean residual 0".8.
     Nongravitational parameters A1 = -0.03, A2 = -0.0002.

・ 星図

・ 光度変化

        m1 = 9.5 + 5 logΔ + 25 log r(t - 22)

---------------------------------------------------------------------

軌道要素はM.P.E.C. 2012-L04に掲載されたものです。
星図はステラナビゲータ Ver.8 (アストロアーツ) で作成したものです。
光度グラフはComet for Windowsで作成したものです。

---------------------------------------------------------------------

Copyright(C) Seiichi Yoshida (comet@aerith.net). All rights reserved.